CZ-6A DEB

Satellite information

Favourite Embed

Satellite Type and Status

DEBRISIN ORBIT

Key statistics

Satellite CZ-6A DEB at a glance.

Uptime

1129

Days in orbit

Revolutions

≈ 14.2

Per day

Orbit

SSO

Sun Synchronous Orbit

Inclination

98.8

Latest

Satellite identification and parameters

Extended collection of information and parameters for CZ-6A DEB.

Object identification

Identified? True

Debris? True

Object name: CZ-6A DEB

International designator: 2022-151AFN

Object number (NORAD): 56638

Object ID (CCSDS): 56638

Country: PEOPLES REPUBLIC OF CHINA (PRC)

Current information (Y/N): Y

RCS size: SMALL

Orbital parameters

Period: 101.544 minutes

Inclination: 98.836 deg

SMA: 7209.929 km

Apoapsis: 867.746 km

Periapsis: 795.843 km

RAAN: 359.55 deg

Eccentricy: 0.0049864

Argument of periapsis: 183.7182 deg

Mean anomaly: 176.3629 deg

Mean motion: 14.18097988 rev/day

Mean motion (dot): 0.00001124 rev/day2

B* drag term: 0.00056263 1/REarth

Two-line elements (TLE)

Creation date: Dec. 9, 2025, 3:16 p.m.

Reference frame: TEME

Reference center: EARTH

Epoch: Dec. 9, 2025, 7:52 a.m. UTC

TLE line 0: 0 CZ-6A DEB

TLE line 1: 1 56638U 22151AFN 25343.32821834 .00001124 00000-0 56263-3 0 9990

TLE line 2: 2 56638 98.8360 359.5500 0049864 183.7182 176.3629 14.18097988135886

Live tracking on map

Real-time ground track for satellite CZ-6A DEB.

In-orbit conjunctions

A list of the most updated potential collisions computed for object CZ-6A DEB.

Target Orbit TCA Probability of collision Miss distance Type
THOR ABLESTAR DEB LEO 2025-10-19 06:52:40 0.0003365706 97.0 (m) DEBRIS
METEOR 2-8 DEB LEO 2025-08-14 08:38:29 0.0001469384 75.0 (m) DEBRIS
FENGYUN 1C DEB SSO 2024-11-14 12:50:37 0.0001185753 328.0 (m) DEBRIS
CZ-6A DEB LEO 2024-10-15 20:49:42 0.0002058349 317.0 (m) DEBRIS

Associated space launch

Chinese satellite reported for atmospheric/ocean/environmental/spatial parameter research purposes, details TBD.

CZ-6A DEB was lifted into orbit during the mission ‘Long March 6A | Yunhai 3’, on board a Long March 6A space rocket.

The launch took place on Nov. 11, 2022, 10:52 p.m. from Launch Complex 9A.

For more information about the launch, click the button.

Launch to space Long March 6A | Yunhai 3
Long March 6A | Yunhai 3

Agency: N/A

Status: Launch Successful

Launch date: Nov. 11, 2022, 10:52 p.m. UTC

Rocket: Long March 6A

Launch pad: Launch Complex 9A

Location: Taiyuan Satellite Launch Center, People's Republic of China

...

Latest news about this satellite

There are no fresh news available about this satellite. Check back as we update our databases every day.


Newsletter sign-up

Weekly statistics, charts and insights to help you stay on top of the space industry.